Flag for U.S.A. Weather past 2 weeks in Paterson, New Jersey, U.S.A.

Now
71 °F

Passing clouds.


Feels Like: 75 °F
Forecast: 71 / 87 °F
Wind: No wind

Location: Essex County Airport

Current Time: Aug 1, 2015 at 2:47:54 AM

Latest Report: Aug 1, 2015 at 1:53 AM


Visibility: 10 mi

Pressure: 29.83 "Hg

Humidity: 68%

Dew point: 60 °F

Location of PatersonLocation

Historic Weather in Paterson — Graph

°F

Paterson temperature yesterday

Maximum temperature yesterday: 89 °F (at 2:53 PM)
Minimum temperature yesterday: 67 °F (at 4:53 AM)
Average temperature yesterday: 79 °F

Past Weeks' High & Low Weather Summary

 TemperatureHumidityPressure
High95 °F (Jul 19, 3:53 PM)94% (Jul 31, 1:53 AM)30.14 "Hg (Jul 31, 1:53 AM)
Low58 °F (Jul 17, 5:53 AM)26% (Jul 31, 4:53 PM)29.58 "Hg (Jul 21, 5:53 PM)
Average78 °F61%29.91 "Hg
* Reported Jul 17 12:53 AM — Aug 1 12:53 AM, Paterson, Weather by CustomWeather, © 2015

Note: Actual official high and low records may vary slightly from our data, if they occured in-between our weather recording intervals... More about our weather records

Advertising

Paterson weather history for previous 24 hours

 ConditionsComfort  
Time TempWeatherWind HumidityBarometerVisibility
12:53 AM
Sat, Aug 1
72 °FClear.No wind64%29.85 "Hg10 mi
11:53 PM
Fri, Jul 31
73 °FClear.No wind59%29.85 "Hg10 mi
10:53 PM74 °FClear.No wind56%29.85 "Hg10 mi
9:53 PM76 °FClear.No wind50%29.84 "Hg10 mi
8:53 PM79 °FSunny.No wind44%29.83 "Hg10 mi
7:53 PM84 °FSunny.No wind36%29.81 "Hg10 mi
6:53 PM87 °FSunny.5 mph29%29.81 "Hg10 mi
5:53 PM88 °FSunny.9 mph28%29.82 "Hg10 mi
4:53 PM88 °FSunny.10 mph26%29.83 "Hg10 mi
3:53 PM89 °FSunny.9 mph27%29.83 "Hg10 mi
2:53 PM89 °FPassing clouds.10 mph30%29.85 "Hg10 mi
1:53 PM87 °FScattered clouds.9 mph36%29.86 "Hg10 mi
12:53 PM86 °FPassing clouds.7 mph37%29.88 "Hg10 mi
11:53 AM85 °FSunny.9 mph39%29.89 "Hg10 mi
10:53 AM83 °FSunny.8 mph43%29.90 "Hg10 mi
9:53 AM81 °FSunny.7 mph49%29.90 "Hg10 mi
8:53 AM76 °FSunny.No wind60%29.90 "Hg10 mi
7:53 AM72 °FSunny.3 mph68%29.90 "Hg10 mi
6:53 AM68 °FSunny.No wind82%29.89 "Hg10 mi
5:53 AM67 °FClear.No wind87%29.88 "Hg10 mi
4:53 AM67 °FClear.No wind87%29.88 "Hg10 mi
3:53 AM70 °FClear.No wind87%29.87 "Hg9 mi
2:53 AM72 °FFog.No wind91%29.86 "Hg4 mi
Weather by CustomWeather, © 2015

See weather overviewHow to use our weather pages